Regional Weather Roundup
Issued by NWS

Home | Current Version | Previous Version | Graphics & Text | Print | Product List | Glossary On
Versions: 1 2 3 4 5 6 7 8 9 10 11 12 13 14 15 16 17 18 19 20 21 22 23 24 25 26 27
000
ASUS45 KCYS 220710
RWRWY

WYOMING REGIONAL WEATHER ROUNDUP
NATIONAL WEATHER SERVICE CHEYENNE WY
1200 AM MST THU FEB 22 2018

NOTE:  "FAIR" INDICATES FEW OR NO CLOUDS BELOW 12,000 FEET
WITH NO SIGNIFICANT WEATHER AND/OR OBSTRUCTIONS TO VISIBILITY.

WYZ001-220800-
YELLOWSTONE NATIONAL PARK

CITY           SKY/WX    TMP DP  RH WIND       PRES   REMARKS
LK YELLOWSTONE   N/A    -14 -19  79 CALM      29.94S
W YELLOWSTONE  NOT AVBL

$$
WYZ002>013-054>058-071-098>099-220800-
NORTHERN WYOMING

CITY           SKY/WX    TMP DP  RH WIND       PRES   REMARKS
JACKSON          N/A      8   0  69 SE6       30.01S WCI  -2
CODY           FAIR       2  -5  72 N3        30.02S
GREYBULL       FAIR     -13 -17  82 CALM      30.11S
WORLAND        FAIR     -10 -14  82 S5        30.08R WCI -22
SHERIDAN       FAIR      -8 -12  83 SE5       30.07S WCI -19
BUFFALO        FAIR      12  -5  46 NW6       30.00S WCI   3
GILLETTE       FAIR       4  -5  66 S13       30.07S WCI -13
HULETT         FAIR      19   3  49 MISG      30.09S
NEWCASTLE      FAIR       9   3  78 E10       30.13F WCI  -6

$$
WYZ014>020-022>026-101>103-220800-
CENTRAL WYOMING

CITY           SKY/WX    TMP DP  RH WIND       PRES   REMARKS
BIG PINEY      FAIR     -14 -18  82 CALM      30.01F
PINEDALE       FAIR     -13 -17  84 NW6       30.01S WCI -27
DUBOIS           N/A    N/A N/A N/A MISG        N/A
LANDER         FAIR       0  -6  76 SW12      30.03S WCI -17
RIVERTON       FAIR      -4 -11  72 W7        30.04S WCI -18
CASPER         FAIR       8   1  73 SW16      30.04F WCI -10
DOUGLAS        FAIR       3   0  87 N3        30.09S

$$
WYZ021-027>030-104>119-220800-
SOUTHERN WYOMING

CITY           SKY/WX    TMP DP  RH WIND       PRES   REMARKS
EVANSTON       FAIR       2  -4  76 E10       29.95F WCI -14
FORT BRIDGER   FAIR      -8 -11  84 CALM      30.01F
ROCK SPRINGS   MOCLDY     5  -2  72 CALM      30.00F
DIXON          CLOUDY     8   3  79 CALM      30.03F
RAWLINS        FAIR       0  -5  79 CALM      30.01F
SARATOGA       FAIR       1  -4  78 SE8       30.00F WCI -12
LARAMIE        FAIR       2  -2  83 SW3       29.97F
CHEYENNE       FAIR      11   8  88 SW6       30.04F WCI   1
TORRINGTON     CLOUDY    14  10  84 E8        30.14F WCI   3
PINE BLUFFS    FAIR      -4  -8  84 MISG      30.12S

$$




USA.gov is the U.S. government's official web portal to all federal, state and local government web resources and services.